Vertical_Velocity
-1 -1 -1 -1 -1 -1 -1 -1 -1 -1 -0 -1 -1 -1 -2 -2 0 -1 6 -3 -4 -3 -3 -3 -5 -2 -4 -4 -5 -1 -1 0 -1 2 -1 -3 1 3 -0 1 -1 1 -2 4 -7
-1 -1 -1 -1 -1 -1 -1 -1 -1 -0 -1 -2 -1 -1 -2 -1 -1 -6 -6 -3 -2 -1 0 0 -0 -1 0 0 -2 -2 -0 -3 1 -1 -2 5 -1 -3 -2 -3 2 3 -1 -6 -8
-1 -1 -2 -2 -2 -1 -1 -1 -1 -2 -2 -2 -1 -2 -1 -2 -2 -7 -3 -2 -0 -2 -3 -3 -4 -4 -5 -1 -2 -3 -2 -0 -2 3 0 -1 -1 -2 -0 1 -0 -7 1 -3 1
-1 -1 -1 -2 -1 -2 -1 -1 -1 -1 -1 -2 -2 1 -3 -1 -8 -1 -1 0 -1 -2 -2 -3 -2 -4 -3 -5 -5 -3 0 -1 -2 -4 -2 -2 -5 -3 -2 0 -5 -1 0 1 0
-1 -1 -1 -1 -1 -1 -1 -2 -1 -1 -1 -2 -2 -2 4 -3 -4 -1 -2 -2 -1 1 -3 -5 -6 -4 -5 -5 -3 -1 -4 -0 -2 -3 -3 -2 1 -2 1 2 2 1 4 -1 -3
-1 -1 -0 -0 -1 -1 -1 -1 -1 -1 -1 -1 -2 -2 -5 2 -0 -3 -1 -1 -2 -3 -5 -4 -5 -4 -5 -3 -4 -4 -4 -1 -3 -0 -0 -4 1 -2 7 3 -1 -6 -4 -2 -5
-1 -1 -1 -1 -1 -1 -1 -1 -1 -1 -0 -2 -1 -1 -2 -5 -3 -1 -1 -1 -2 -4 -3 -1 -3 -3 1 -7 -2 -3 -3 -3 5 2 1 -3 2 -2 -1 -2 -2 -7 -4 -2 -3
-0 -1 -1 -1 -1 -1 -1 -1 -2 -1 -2 -2 -3 -1 -2 -3 0 1 -2 -3 -3 -2 -1 -4 -4 -1 -13 1 -6 -3 5 -5 0 8 -1 -5 -13 -5 -3 1 -3 -3 -4 1 -4
-1 -1 -1 -1 -1 -1 -1 -1 -2 -2 -2 -2 -2 -3 -5 1 -1 -2 -5 -2 -2 -2 -4 -4 1 -6 4 -4 -1 3 -7 -6 -11 -2 9 6 -8 1 -2 9 -4 -1 2 2 1
-1 -1 -2 -2 -1 -1 -2 -2 -2 -1 -2 -2 -3 -0 -1 0 -0 -3 -3 -3 1 1 0 -6 -5 3 -8 -8 -5 -8 -3 2 2 -7 9 2 -8 1 4 -4 -0 -3 -0 -0 -4
-0 -1 -2 -2 -2 -1 -2 -3 -1 -1 -1 -3 -3 -1 1 1 1 -1 -1 -0 -3 -9 -1 -2 -7 -9 -5 -2 -3 0 4 2 -2 6 -5 2 -8 -1 -0 -0 1 -2 -2 -0 0
-1 -1 -1 -2 -2 -2 -2 -2 -1 -1 -1 -2 0 1 1 1 -1 -1 2 -2 -4 -5 -2 -6 -3 -0 -0 -6 -2 5 -3 -1 -8 -0 -1 3 -9 1 -3 -1 -0 -2 2 -2 -8
-1 -1 -1 -1 -3 -2 -2 -2 -2 -1 -1 -2 -2 -1 -4 2 -3 -3 -4 -3 -5 -7 -5 -3 -3 -3 1 -1 -6 4 -3 2 1 -5 5 -3 -5 -7 -1 -2 -4 -3 -4 -7 3
0 -1 -1 -1 2 -2 -2 -2 -2 -2 -2 -3 -4 -2 -5 -7 -5 -7 -5 -2 -2 -1 -2 -1 -2 -2 2 -3 -3 -6 1 8 -2 5 -3 4 -10 8 3 -2 -6 -9 3 -3 -3
-1 -1 -1 -1 -1 -2 -2 -2 -3 -2 -2 -4 -4 -4 4 2 2 2 -2 -4 -4 -4 -2 -4 -0 -3 -3 -3 -3 -9 -1 -0 0 3 -0 0 4 -1 1 1 4 6 -0 0 0
-1 -1 -1 -1 -2 -1 -2 -3 -2 -4 -3 -1 1 -1 -1 -2 -1 -4 3 1 -0 -3 -4 -4 -1 -0 -1 -2 -1 -5 -9 -5 -1 -0 1 4 1 -7 14 5 4 3 6 -6 -10
-1 -2 -1 -2 -2 -2 -3 -3 -2 -9 -1 0 -4 -4 -4 -5 -2 -4 -11 -8 -9 -10 -5 -1 -1 -1 -2 -3 -2 -5 -17 -9 -13 -2 -4 1 4 -10 7 -5 4 4 -7 -4 4
-1 -2 -2 -2 -2 -2 -3 -4 -6 -0 -2 -1 -3 -1 -1 -2 -4 -3 -0 -2 0 -3 -1 -2 -10 1 -4 -3 -2 -6 -2 -3 -2 1 -6 -5 -4 -8 2 6 7 -5 -5 4 -5
-1 -1 -1 -2 -3 -3 -3 -4 -2 -1 -1 -1 -2 -5 -5 -6 -2 -1 -3 -3 -0 -2 -8 -1 -1 -7 1 0 -5 -6 -5 -1 -0 -0 13 -1 3 30 6 3 6 6 -8 -5 -6
-2 -1 -1 -2 -2 -2 -3 -2 -1 -1 -1 -1 -5 -3 -3 -1 -1 1 -2 -2 -4 0 -0 -1 -5 -2 -1 -3 -6 1 -3 -5 -1 -4 -3 -5 -4 -4 -2 -5 -19 -11 -3 3 4
-1 -1 -1 -2 -2 -1 -2 -1 -1 -1 -2 -2 -2 -1 -0 -5 -1 -3 -3 -3 -1 -1 1 2 -2 -3 0 -0 1 -2 -2 -2 0 -3 -2 -1 -15 2 2 -7 8 -1 7 -7 -2
-1 -1 -1 -1 -1 -2 -2 -1 -0 -0 -1 -0 -2 -0 -0 1 -0 -2 -2 1 1 -1 0 -0 -0 -4 -4 0 2 -3 -2 -3 -2 -1 -2 5 -37 -7 6 5 -4 -8 -4 1 5
-1 -1 0 -1 -2 -1 -2 -1 -2 -0 -2 -2 -1 -1 0 -0 -4 1 0 2 1 -0 -2 -2 -1 -5 0 -1 -0 2 0 4 5 5 -10 2 -29 0 5 -9 -0 -12 -1 1 -2
-1 -2 -2 -1 -1 -0 -1 -1 -2 -1 -0 -1 1 -1 -2 -5 -0 0 1 -4 1 -0 -0 -2 -1 0 -7 -3 8 1 12 6 8 3 -4 -24 -33 -4 4 -12 -10 7 7 -0 -3
1 -1 -1 -1 2 -1 -0 -2 -1 -1 -0 -1 -1 -1 0 -3 -3 -5 -3 1 -4 1 -2 3 -4 -2 2 -4 3 -3 -1 5 -1 1 4 -18 -7 3 -9 -12 -14 -11 -9 -4 -10
-1 1 1 -3 -1 1 -0 -0 0 -1 -2 0 -0 -2 -3 0 2 -2 2 4 3 -3 1 -3 -3 0 -15 -1 3 -9 -1 2 -1 1 0 7 -21 13 -6 -2 4 1 -0 -12 1
1 -0 1 1 -0 -2 1 0 0 0 0 -0 -2 -1 0 -0 -0 1 0 1 1 -0 2 1 -0 0 -9 -0 5 -5 -1 0 1 5 6 1 2 1 -5 -6 5 -10 -6 -1 4
Height
3163 3163 3162 3160 3159 3157 3154 3152 3150 3148 3147 3146 3145 3144 3142 3140 3139 3137 3137 3133 3131 3128 3126 3124 3121 3118 3116 3113 3111 3107 3105 3101 3099 3096 3093 3085 3083 3085 3083 3082 3080 3081 3080 3079 3071
3165 3164 3163 3162 3160 3158 3156 3153 3151 3149 3148 3147 3146 3145 3143 3141 3139 3136 3133 3131 3129 3127 3124 3121 3118 3115 3112 3109 3106 3104 3100 3096 3093 3090 3087 3084 3081 3078 3076 3077 3077 3075 3074 3069 3067
3167 3166 3165 3163 3162 3160 3157 3154 3151 3150 3149 3148 3147 3146 3144 3141 3139 3136 3134 3132 3129 3125 3122 3119 3116 3112 3108 3106 3103 3100 3097 3093 3089 3085 3081 3079 3078 3073 3071 3070 3071 3068 3066 3064 3063
3169 3168 3166 3164 3162 3160 3157 3154 3152 3150 3149 3148 3147 3146 3145 3142 3141 3136 3134 3131 3128 3124 3120 3118 3114 3110 3107 3103 3099 3095 3092 3088 3083 3080 3076 3073 3071 3068 3068 3065 3062 3061 3059 3056 3054
3170 3169 3167 3165 3163 3160 3158 3155 3152 3150 3149 3149 3148 3146 3145 3142 3139 3137 3133 3129 3125 3122 3119 3116 3112 3106 3102 3098 3093 3091 3087 3081 3078 3075 3073 3068 3066 3063 3061 3059 3056 3055 3053 3049 3047
3172 3170 3168 3166 3164 3162 3159 3156 3153 3152 3151 3150 3148 3146 3143 3141 3138 3135 3132 3128 3123 3119 3116 3113 3108 3104 3098 3095 3092 3087 3082 3078 3074 3071 3067 3063 3062 3058 3057 3054 3052 3049 3047 3043 3041
3173 3171 3169 3167 3165 3162 3159 3156 3154 3152 3151 3150 3149 3146 3144 3142 3137 3134 3130 3125 3121 3118 3115 3110 3106 3102 3096 3090 3087 3084 3079 3076 3072 3069 3064 3060 3060 3056 3053 3051 3050 3045 3042 3040 3037
3174 3172 3170 3167 3165 3162 3160 3157 3154 3152 3151 3151 3149 3146 3142 3139 3137 3133 3128 3124 3121 3116 3112 3108 3104 3101 3092 3087 3081 3079 3078 3071 3073 3067 3062 3058 3052 3054 3051 3049 3045 3042 3040 3037 3034
3175 3173 3171 3168 3166 3163 3160 3157 3155 3153 3152 3151 3149 3145 3142 3140 3136 3131 3127 3124 3119 3114 3110 3105 3102 3096 3094 3089 3084 3083 3076 3070 3064 3063 3060 3056 3045 3045 3045 3045 3041 3039 3037 3034 3032
3176 3174 3171 3169 3167 3164 3161 3158 3155 3153 3153 3152 3149 3147 3143 3139 3134 3129 3125 3121 3116 3112 3109 3102 3098 3098 3093 3084 3086 3078 3072 3066 3064 3058 3055 3049 3042 3041 3041 3039 3038 3036 3035 3033 3031
3177 3175 3172 3170 3167 3164 3162 3158 3158 3155 3152 3152 3151 3147 3144 3140 3136 3131 3127 3121 3113 3108 3105 3103 3101 3092 3088 3087 3084 3078 3073 3063 3058 3055 3046 3044 3036 3033 3035 3034 3035 3034 3032 3031 3028
3177 3176 3174 3171 3168 3165 3162 3158 3156 3156 3151 3151 3150 3147 3143 3138 3134 3131 3126 3121 3115 3110 3104 3101 3097 3095 3092 3087 3083 3079 3069 3061 3054 3051 3045 3035 3029 3028 3029 3031 3032 3031 3030 3027 3022
3177 3176 3174 3171 3169 3166 3162 3159 3154 3152 3151 3154 3150 3147 3142 3139 3134 3131 3126 3121 3115 3110 3105 3103 3101 3095 3089 3085 3078 3075 3068 3060 3054 3042 3040 3034 3027 3026 3026 3028 3028 3028 3026 3021 3019
3178 3176 3174 3172 3171 3166 3162 3159 3155 3152 3152 3155 3150 3146 3143 3138 3134 3129 3123 3121 3113 3110 3104 3101 3097 3095 3092 3085 3076 3068 3065 3054 3045 3045 3042 3037 3032 3027 3023 3025 3025 3023 3020 3017 3015
3178 3176 3174 3171 3169 3166 3164 3159 3155 3153 3153 3157 3151 3147 3143 3141 3135 3128 3124 3117 3114 3111 3109 3104 3098 3093 3089 3084 3076 3069 3058 3048 3043 3042 3041 3036 3036 3025 3023 3023 3024 3022 3018 3013 3011
3178 3176 3173 3172 3169 3167 3163 3160 3157 3156 3154 3155 3153 3148 3143 3138 3134 3129 3123 3119 3113 3109 3106 3101 3096 3092 3087 3083 3074 3068 3056 3046 3042 3041 3040 3036 3036 3023 3024 3024 3023 3018 3014 3007 3004
3177 3176 3174 3172 3169 3167 3164 3161 3161 3159 3162 3158 3152 3146 3143 3137 3132 3126 3121 3116 3111 3104 3103 3098 3093 3088 3084 3080 3074 3069 3054 3049 3049 3046 3043 3036 3036 3024 3023 3020 3020 3016 3008 3003 2996
3177 3175 3173 3171 3169 3167 3164 3163 3160 3162 3159 3156 3151 3146 3141 3136 3132 3127 3123 3117 3115 3111 3102 3098 3089 3091 3087 3082 3078 3072 3070 3072 3080 3057 3044 3031 3031 3023 3021 3018 3014 3009 3006 3000 2991
3176 3175 3173 3171 3169 3167 3166 3163 3164 3162 3159 3155 3150 3145 3142 3137 3133 3126 3121 3118 3114 3111 3111 3102 3093 3088 3085 3082 3081 3075 3072 3073 3068 3059 3053 3030 3026 3024 3018 3017 3015 3010 3002 2990 2979
3175 3174 3172 3170 3168 3166 3165 3164 3162 3161 3158 3154 3151 3147 3143 3138 3133 3127 3122 3118 3115 3112 3107 3104 3095 3090 3084 3079 3076 3076 3075 3072 3072 3071 3060 3028 3023 3018 3017 3014 3009 2999 2988 2976 2964
3174 3172 3171 3168 3167 3166 3164 3163 3161 3160 3157 3155 3150 3147 3143 3137 3131 3127 3125 3121 3116 3111 3107 3101 3098 3091 3085 3078 3076 3076 3073 3073 3072 3069 3067 3051 3022 3016 3014 3008 2997 2988 2976 2962 2950
3172 3171 3169 3167 3167 3164 3163 3162 3161 3159 3156 3153 3150 3146 3141 3136 3130 3128 3125 3121 3116 3112 3107 3102 3095 3086 3083 3079 3074 3072 3070 3069 3069 3066 3062 3056 3022 3012 3010 3005 2992 2976 2963 2953 2944
3171 3169 3168 3166 3165 3163 3162 3161 3160 3157 3155 3151 3149 3146 3141 3135 3132 3126 3122 3118 3114 3111 3106 3103 3096 3087 3080 3079 3074 3067 3064 3064 3063 3060 3055 3055 3017 3014 3009 2997 2984 2968 2956 2943 2930
3170 3168 3166 3164 3163 3162 3160 3159 3158 3156 3153 3150 3147 3144 3140 3135 3132 3126 3121 3115 3110 3106 3102 3099 3095 3094 3091 3084 3078 3068 3064 3061 3060 3058 3044 3034 3008 3000 2998 2984 2969 2959 2948 2933 2917
3167 3166 3164 3163 3161 3160 3158 3157 3155 3153 3151 3148 3145 3142 3138 3133 3129 3124 3118 3113 3106 3102 3099 3096 3089 3084 3076 3069 3065 3061 3055 3054 3050 3043 3039 3018 3016 3003 2993 2980 2968 2953 2935 2920 2905
3165 3164 3162 3160 3159 3158 3156 3155 3153 3150 3149 3147 3143 3139 3136 3133 3129 3123 3117 3112 3106 3100 3096 3090 3086 3078 3066 3062 3056 3051 3049 3047 3043 3038 3027 3018 3005 3005 2993 2979 2962 2947 2931 2913 2893
3160 3159 3158 3157 3156 3155 3154 3152 3150 3148 3146 3143 3140 3137 3134 3130 3125 3120 3115 3109 3105 3101 3096 3091 3085 3077 3061 3059 3052 3044 3041 3038 3033 3028 3023 3011 3004 2994 2982 2969 2958 2940 2923 2906 2892